TimeMST,TemperatureF,Dew PointF,Humidity,Sea Level PressureIn,VisibilityMPH,Wind Direction,Wind SpeedMPH,Gust SpeedMPH,PrecipitationIn,Events,Conditions,WindDirDegrees,DateUTC
12:56 AM,9.0,1.9,73,30.24,10.0,West,3.5,-,N/A,,Overcast,280,2013-01-31 07:56:00
1:56 AM,10.0,3.9,76,30.26,10.0,Calm,Calm,-,N/A,,Overcast,0,2013-01-31 08:56:00
2:56 AM,10.9,3.9,73,30.26,10.0,Calm,Calm,-,N/A,,Overcast,0,2013-01-31 09:56:00
3:56 AM,12.9,5.0,71,30.26,10.0,South,5.8,-,N/A,,Overcast,180,2013-01-31 10:56:00
4:56 AM,12.0,3.9,70,30.27,10.0,SSE,4.6,-,N/A,,Overcast,160,2013-01-31 11:56:00
5:56 AM,12.9,5.0,71,30.26,10.0,SSE,6.9,-,N/A,,Overcast,160,2013-01-31 12:56:00
6:56 AM,10.9,5.0,77,30.27,10.0,ESE,4.6,-,N/A,,Overcast,120,2013-01-31 13:56:00
7:56 AM,12.9,6.1,74,30.26,10.0,SSE,4.6,-,N/A,,Overcast,150,2013-01-31 14:56:00
8:56 AM,15.1,6.1,68,30.25,10.0,SSE,5.8,-,N/A,,Scattered Clouds,160,2013-01-31 15:56:00
9:56 AM,19.9,8.1,60,30.23,10.0,South,4.6,-,N/A,,Clear,170,2013-01-31 16:56:00
10:56 AM,27.0,10.9,51,30.18,10.0,SSW,3.5,-,N/A,,Clear,210,2013-01-31 17:56:00
11:56 AM,33.1,14.0,46,30.14,10.0,SSE,3.5,-,N/A,,Clear,150,2013-01-31 18:56:00
12:56 PM,35.1,18.0,50,30.11,10.0,SSE,3.5,-,N/A,,Clear,160,2013-01-31 19:56:00
1:56 PM,43.0,25.0,49,30.06,10.0,Calm,Calm,-,N/A,,Clear,0,2013-01-31 20:56:00
2:56 PM,41.0,27.0,57,30.05,10.0,Variable,4.6,-,N/A,,Mostly Cloudy,0,2013-01-31 21:56:00
3:28 PM,46.4,28.4,50,29.94,10.0,WSW,20.7,29.9,N/A,,Mostly Cloudy,250,2013-01-31 22:28:00
3:56 PM,44.1,28.0,53,30.04,10.0,WSW,21.9,27.6,N/A,,Partly Cloudy,250,2013-01-31 22:56:00
4:56 PM,41.0,27.0,57,30.04,10.0,West,25.3,32.2,N/A,,Mostly Cloudy,260,2013-01-31 23:56:00
5:56 PM,39.0,26.1,60,30.04,10.0,West,25.3,-,N/A,,Overcast,260,2013-02-01 00:56:00
6:56 PM,37.4,26.6,65,29.90,10.0,West,25.3,-,N/A,,Clear,260,2013-02-01 01:56:00
7:56 PM,37.0,26.1,65,30.02,10.0,West,18.4,-,N/A,,Partly Cloudy,260,2013-02-01 02:56:00
8:56 PM,37.9,27.0,65,30.00,10.0,West,25.3,31.1,N/A,,Partly Cloudy,260,2013-02-01 03:56:00
9:56 PM,39.0,27.0,62,29.99,10.0,West,25.3,32.2,N/A,,Overcast,270,2013-02-01 04:56:00
10:56 PM,37.9,26.1,62,29.99,10.0,West,15.0,-,N/A,,Overcast,280,2013-02-01 05:56:00
11:56 PM,37.0,26.1,65,29.98,10.0,West,10.4,-,N/A,,Overcast,280,2013-02-01 06:56:00